[[{"header":{"parameterUnit":"m.s-1","parameterCategory":1,"la1":30.2991,"la2":30.254,"lo1":-89.0895,"lo2":-89.0444,"dy":0.0017,"dx":0.0017,"nx":28,"ny":28,"refTime":"2025-05-17T21:00:00:Z","depth":0,"parameterNumber":2,"parameterNumberName":"U-component_of_WINDS"},"data":[0,0,0,0,0,0,0,0,0,0,0,0,0,0,0,0,0,0,0,0,0,0,0,0,0,0,0,0,0,0,0,0,0,0,0,0,0,0,0,0,0,0,0,0,0,0,0,0,0,0,0,0,0,0,0,0,0,0,3.0595,3.0596,0,3.0723,3.0725,3.0726,3.071,3.0708,3.0706,3.0704,3.0836,3.0841,3.0847,0,0,0,0,0,0,0,0,0,0,0,0,0,3.0336,3.0341,3.0595,3.0597,3.0598,3.0723,3.0725,3.0727,3.071,3.0708,3.0705,3.0703,3.0834,3.0841,3.0847,0,0,0,0,0,0,0,0,0,0,0,0,0,3.0455,3.0343,3.0595,3.0605,3.0607,3.0723,3.0725,3.0727,3.0711,3.0708,3.0705,3.0702,3.0832,3.084,3.0848,3.0961,0,0,3.0873,3.0877,0,0,0,0,0,0,0,0,3.0448,3.0464,3.0602,3.0605,3.0607,3.0697,3.0682,3.0806,3.0712,3.0672,3.0704,3.07,3.0792,3.0804,3.0835,3.0967,3.0973,3.0874,3.0879,3.0882,3.0885,0,0,0,0,0,0,0,3.044,3.0459,3.0646,3.0604,3.0607,3.0603,3.0617,3.0705,3.0748,3.0675,3.0674,3.0689,3.0793,3.0827,3.0838,3.0975,3.0874,3.0881,3.0886,3.0889,3.1206,3.121,0,0,0,0,0,0,3.0429,3.0452,3.0642,3.065,3.0518,3.0611,3.0626,3.0672,3.0747,3.0755,3.0692,3.0688,3.0814,3.0828,3.0842,3.0979,3.0882,3.089,3.0895,3.1203,3.1207,3.1211,0,0,0,0,0,0,3.0424,3.0446,3.0636,3.0551,3.0575,3.0618,3.067,3.0676,3.0709,3.076,3.0767,3.0718,3.0812,3.0831,3.0931,3.0983,3.0894,3.0901,3.1199,3.1204,3.1209,3.1253,0,0,0,0,0,0,3.0416,3.0444,3.0488,3.0552,3.0579,3.0724,3.0674,3.0681,3.0723,3.072,3.0787,3.0795,3.0811,3.0919,3.094,3.0993,3.0907,3.1194,3.1201,3.1207,3.1248,3.126,3.127,0,0,0,0,0,3.0407,3.0496,3.049,3.0513,3.0635,3.0727,3.0742,3.076,3.0728,3.0772,3.0804,3.0793,3.0974,3.093,3.0953,3.1009,3.1191,3.1199,3.1207,3.1243,3.1257,3.127,0,0,0,0,0,0,3.0437,3.0504,3.0499,3.0611,3.0663,3.0724,3.078,3.0775,3.0837,3.0831,3.085,3.0865,3.0967,3.0998,3.0947,3.1122,3.1078,3.1091,3.1098,3.1112,3.1123,3.1113,3.0914,0,0,0,0,0,3.0456,3.0525,3.0581,3.0674,3.0701,3.0736,3.0777,3.0785,3.084,3.0862,3.0902,3.0956,3.1026,3.1071,3.1137,3.1252,3.1266,3.1302,3.1313,3.1322,3.1333,3.1395,3.1411,3.1237,3.1237,3.1237,0,0,3.0497,3.0543,3.0585,3.0681,3.0723,3.0794,3.0755,3.0832,3.0884,3.0874,3.0971,3.1003,3.1064,3.1172,3.1222,3.1201,3.1384,3.1332,3.1339,3.1345,3.1405,3.1421,3.1436,3.1242,3.1241,3.124,0,0,3.0608,3.065,3.0732,3.0774,3.0837,3.086,3.088,3.0942,3.0962,3.106,3.1053,3.1117,3.1236,3.1279,3.1317,3.1445,3.1436,3.1466,3.1524,3.1584,3.1598,3.161,3.1654,3.167,3.1476,3.1477,3.1477,0,3.0651,3.0758,3.0774,3.0852,3.0894,3.0888,3.0971,3.1011,3.1093,3.1122,3.1098,3.1247,3.1288,3.1406,3.1437,3.1468,3.1491,3.1458,3.1594,3.1607,3.1619,3.1661,3.1678,3.148,3.1479,3.1479,3.1479,0,3.0807,3.0881,3.094,3.1018,3.1067,3.1147,3.1176,3.1223,3.1227,3.1253,3.1352,3.1401,3.1477,3.1506,3.1511,3.1625,3.161,3.159,3.1546,3.1638,3.1678,3.1694,3.1484,3.1483,3.1482,3.1481,0,0,3.0939,3.1026,3.1047,3.1082,3.1152,3.121,3.1289,3.1363,3.1403,3.146,3.1526,3.1627,3.1609,3.1652,3.1662,3.1716,3.1812,3.1689,3.1691,3.1709,3.1938,3.1951,3.197,3.1807,3.181,3.1813,3.1932,0,3.1056,3.1196,3.1213,3.1338,3.1406,3.1401,3.147,3.152,3.1546,3.1608,3.1636,3.1707,3.1679,3.1704,3.1757,3.1789,3.1857,3.1781,3.1868,3.1871,3.1851,3.1991,3.2005,3.2116,3.1948,3.1951,3.1953,0,3.1211,3.1271,3.1402,3.1461,3.1491,3.1553,3.1621,3.168,3.1737,3.1752,3.18,3.1803,3.1885,3.1839,3.1951,3.1899,3.1936,3.1957,3.1962,3.1969,3.1916,3.2001,3.2152,3.2168,3.1978,3.1976,3.1974,0,3.1292,3.1407,3.15,3.153,3.1602,3.1646,3.1678,3.1731,3.1774,3.1835,3.1862,3.1932,3.1969,3.2023,3.2045,3.2009,3.2156,3.2112,3.217,3.2169,3.22,3.2197,3.2357,3.2226,3.2226,3.2226,3.2225,0,3.142,3.15,3.1537,3.1594,3.1684,3.1703,3.1791,3.1821,3.1869,3.1931,3.1932,3.1991,3.2017,3.208,3.2098,3.2187,3.2205,3.2219,3.2222,3.2218,3.2216,3.2242,3.2234,3.223,3.2229,3.2228,3.2227,0,3.1526,3.1554,3.1655,3.1715,3.1732,3.1795,3.1846,3.1901,3.1926,3.2005,3.2025,3.2065,3.2139,3.2166,3.2256,3.2268,3.2372,3.237,3.2352,3.2353,3.2409,3.2403,3.259,3.2615,3.2468,3.247,3.2471,0,3.1605,3.1666,3.1732,3.1774,3.1807,3.1875,3.1919,3.194,3.1986,3.2054,3.2101,3.2175,3.2234,3.2353,3.2389,3.2458,3.2457,3.2518,3.2467,3.2461,3.2456,3.2452,3.2457,3.2527,3.2528,3.253,3.2531,0,3.1741,3.1752,3.1815,3.1883,3.1935,3.199,3.2043,3.2077,3.2107,3.2158,3.2233,3.228,3.2371,3.2444,3.2515,3.2547,3.2544,3.2546,3.2563,3.2559,3.2545,3.2552,3.2376,3.2542,3.254,3.254,3.2539,3.2539,3.1835,3.1889,3.1944,3.2014,3.2056,3.2105,3.2159,3.2191,3.2254,3.233,3.234,3.242,3.2475,3.2569,3.2605,3.2668,3.2652,3.2677,3.2683,3.2688,3.2691,3.2536,3.2682,3.2681,3.2681,3.2681,3.2681,0,3.197,3.2005,3.2069,3.2143,3.2198,3.219,3.2249,3.2295,3.2366,3.2417,3.2476,3.2562,3.2632,3.2675,3.2745,3.2788,3.2788,3.2805,3.2802,3.2809,3.2703,3.268,3.2804,3.2804,3.2804,3.2804,3.2804,3.2804,3.2047,3.2137,3.2155,3.2266,3.23,3.2379,3.2413,3.2458,3.2499,3.2595,3.2653,3.268,3.2728,3.2802,3.2866,3.2876,3.2902,3.2921,3.293,3.2829,3.2817,3.2804,3.2783,3.2926,3.2927,3.303,3.3031,3.3032]},{"header":{"parameterUnit":"m.s-1","parameterCategory":1,"la1":30.2991,"la2":30.254,"lo1":-89.0895,"lo2":-89.0444,"dy":0.0017,"dx":0.0017,"nx":28,"ny":28,"refTime":"2025-05-17T21:00:00:Z","depth":0,"parameterNumber":3,"parameterNumberName":"V-component_of_WINDS"},"data":[0,0,0,0,0,0,0,0,0,0,0,0,0,0,0,0,0,0,0,0,0,0,0,0,0,0,0,0,0,0,0,0,0,0,0,0,0,0,0,0,0,0,0,0,0,0,0,0,0,0,0,0,0,0,0,0,0,0,2.3394,2.3395,0,2.3484,2.3485,2.3486,2.3482,2.3481,2.348,2.3478,2.3568,2.3571,2.3575,0,0,0,0,0,0,0,0,0,0,0,0,0,2.3215,2.3219,2.3394,2.3395,2.3396,2.3484,2.3485,2.3486,2.3482,2.3481,2.3479,2.3478,2.3567,2.3571,2.3575,0,0,0,0,0,0,0,0,0,0,0,0,0,2.3298,2.322,2.3394,2.3405,2.3407,2.3484,2.3485,2.3487,2.3483,2.3481,2.3479,2.3477,2.3565,2.3571,2.3576,2.3647,0,0,2.3592,2.3594,0,0,0,0,0,0,0,0,2.3293,2.3304,2.3402,2.3404,2.3406,2.347,2.3455,2.354,2.3483,2.3454,2.3478,2.3476,2.3537,2.3544,2.3565,2.3651,2.3655,2.3593,2.3596,2.3598,2.36,0,0,0,0,0,0,0,2.3287,2.33,2.343,2.3403,2.3406,2.3404,2.3414,2.3471,2.3505,2.3456,2.3456,2.3467,2.3537,2.356,2.3567,2.3656,2.3592,2.3597,2.36,2.3603,2.3804,2.3806,0,0,0,0,0,0,2.328,2.3296,2.3427,2.3432,2.3344,2.3409,2.342,2.3451,2.3504,2.351,2.3468,2.3466,2.3552,2.3561,2.357,2.3657,2.3598,2.3603,2.3606,2.3802,2.3804,2.3806,0,0,0,0,0,0,2.3276,2.3291,2.3423,2.3364,2.3381,2.3414,2.345,2.3454,2.3477,2.3513,2.3519,2.3486,2.3551,2.3563,2.3628,2.366,2.3606,2.361,2.3799,2.3802,2.3805,2.3831,0,0,0,0,0,0,2.3271,2.329,2.3318,2.3365,2.3384,2.348,2.3452,2.3457,2.3486,2.3485,2.3531,2.3537,2.355,2.362,2.3633,2.3666,2.3615,2.3796,2.38,2.3804,2.3827,2.3834,2.384,0,0,0,0,0,2.3264,2.3321,2.332,2.3336,2.342,2.3482,2.3493,2.3508,2.3489,2.3517,2.354,2.3535,2.3654,2.3627,2.3641,2.3677,2.3794,2.3799,2.3804,2.3824,2.3833,2.384,0,0,0,0,0,0,2.3277,2.3328,2.3327,2.34,2.3437,2.3481,2.3517,2.3517,2.3559,2.3555,2.3571,2.3581,2.3647,2.3668,2.3636,2.3748,2.3722,2.373,2.3732,2.3741,2.3747,2.3741,2.3619,0,0,0,0,0,2.3289,2.3336,2.3377,2.3438,2.3457,2.3484,2.3511,2.352,2.3558,2.3573,2.3601,2.3638,2.3683,2.3713,2.3757,2.383,2.3839,2.3861,2.3868,2.3873,2.388,2.392,2.393,2.3822,2.3822,2.3822,0,0,2.3313,2.3346,2.3375,2.3442,2.3471,2.3519,2.3497,2.3548,2.3584,2.3581,2.3644,2.3666,2.3707,2.3777,2.3808,2.3796,2.3912,2.3879,2.3883,2.3887,2.3926,2.3936,2.3945,2.3825,2.3825,2.3824,0,0,2.3381,2.3412,2.3466,2.3496,2.3541,2.3558,2.3571,2.3615,2.363,2.3694,2.3693,2.3734,2.3812,2.3842,2.3867,2.3945,2.3942,2.3959,2.3994,2.4033,2.4041,2.4049,2.4077,2.4087,2.3966,2.3966,2.3966,0,2.3406,2.3479,2.3493,2.3546,2.3575,2.3575,2.3629,2.3657,2.3713,2.3733,2.3718,2.3816,2.3844,2.392,2.3939,2.396,2.3974,2.3954,2.4039,2.4047,2.4054,2.4081,2.4092,2.3967,2.3967,2.3967,2.3967,0,2.3506,2.3556,2.3594,2.365,2.3683,2.3736,2.3758,2.3789,2.3794,2.3813,2.3877,2.3911,2.3961,2.3979,2.3985,2.4056,2.4047,2.4036,2.401,2.4066,2.4092,2.4102,2.397,2.3969,2.3969,2.3968,0,0,2.3587,2.3649,2.3663,2.3688,2.3737,2.3776,2.3828,2.3878,2.3905,2.3943,2.3987,2.4052,2.4042,2.407,2.4078,2.4112,2.4172,2.4097,2.4098,2.411,2.4253,2.4262,2.4273,2.417,2.4172,2.4173,2.4249,0,2.366,2.3755,2.3769,2.3852,2.3898,2.3898,2.3943,2.3977,2.3996,2.4037,2.4056,2.4103,2.4085,2.4103,2.4136,2.4158,2.4201,2.4152,2.421,2.4212,2.4201,2.4287,2.4297,2.4367,2.4259,2.4261,2.4262,0,2.376,2.3802,2.3889,2.3932,2.3952,2.3992,2.4039,2.4078,2.4117,2.4127,2.4159,2.4163,2.4216,2.4187,2.4259,2.4226,2.425,2.4264,2.4267,2.4274,2.4241,2.4296,2.439,2.44,2.4278,2.4277,2.4276,0,2.381,2.3888,2.3951,2.3972,2.4023,2.4051,2.4074,2.411,2.4139,2.4179,2.4198,2.4244,2.4269,2.4303,2.4318,2.4296,2.439,2.4362,2.44,2.44,2.4421,2.4419,2.452,2.4435,2.4435,2.4434,2.4434,0,2.3892,2.3946,2.3974,2.4013,2.4072,2.4087,2.4145,2.4166,2.4199,2.424,2.4242,2.4281,2.4299,2.434,2.4352,2.441,2.4421,2.4431,2.4433,2.4431,2.443,2.4448,2.4444,2.4437,2.4437,2.4436,2.4436,0,2.3959,2.398,2.4048,2.4091,2.4103,2.4145,2.418,2.4217,2.4234,2.4287,2.43,2.4327,2.4376,2.4394,2.4453,2.4461,2.4528,2.4527,2.4516,2.4517,2.4554,2.455,2.467,2.4686,2.459,2.4591,2.4591,0,2.401,2.4052,2.4098,2.4127,2.415,2.4196,2.4226,2.4242,2.4272,2.4319,2.4349,2.4398,2.4438,2.4515,2.4539,2.4584,2.4583,2.4622,2.459,2.4586,2.4584,2.4582,2.4586,2.4628,2.4629,2.463,2.4631,0,2.4099,2.4107,2.4151,2.4198,2.4233,2.4271,2.4307,2.433,2.4351,2.4385,2.4435,2.4466,2.4526,2.4574,2.462,2.4641,2.464,2.4641,2.4652,2.465,2.4643,2.4648,2.4533,2.4638,2.4637,2.4637,2.4636,2.4636,2.416,2.4197,2.4235,2.4283,2.4312,2.4346,2.4383,2.4405,2.4447,2.4498,2.4505,2.4558,2.4594,2.4656,2.4679,2.472,2.471,2.4726,2.473,2.4734,2.4737,2.4635,2.4728,2.4728,2.4728,2.4728,2.4728,0,2.4249,2.4274,2.4318,2.4369,2.4407,2.4402,2.4442,2.4473,2.4521,2.4555,2.4594,2.4651,2.4697,2.4725,2.4771,2.4798,2.4799,2.481,2.4808,2.4813,2.4743,2.4729,2.4809,2.4809,2.4809,2.4809,2.4809,2.4809,2.43,2.4362,2.4375,2.445,2.4474,2.4528,2.4551,2.4582,2.4609,2.4673,2.4712,2.473,2.4761,2.4809,2.4851,2.4857,2.4874,2.4887,2.4893,2.4827,2.4818,2.481,2.4797,2.489,2.489,2.4959,2.496,2.4961]}]]